Terminal Aerodrome Forecast
Issued by NWS Amarillo, TX

Home | Current Version | Previous Version | Text Only | Print | Product List | Glossary On
Versions: 1 2 3 4 5 6 7 8 9 10 11 12 13 14 15 16 17 18 19
000
FTUS44 KAMA 011700
TAFDHT
TAF
KDHT 011720Z 0118/0218 31008KT P6SM SKC
     FM012100 25008KT P6SM SKC
     FM020800 35016KT P6SM SCT100
     FM021100 35016G25KT P6SM SCT100=

USA.gov is the U.S. government's official web portal to all federal, state and local government web resources and services.